Estación Meteorológica Peña el Pijo (Robertgarden) [ 11/16/19 01:54:40 CET ]

Fecha Hora Presion(HPa) Temp (°C) Humedad % Rocio (°C) Viento ( m/s) Direccion Lluvia 1Hora(mm) Lluvia 24H(mm) LLuvia Total(mm)
2019-Jul-07 01:09:06 1009.600 - - - - NNW     342.62
2019-Jul-07 02:09:25 1009.100 - - - - NNW     342.62
2019-Jul-07 03:09:08 1008.900 - - - - NNW     342.62
2019-Jul-07 04:09:18 1009.000 - - - - NNW     342.62
2019-Jul-07 05:09:17 1008.800 - - - - NNW     342.62
2019-Jul-07 06:09:56 1008.500 - - - - NNW     342.62
2019-Jul-07 07:08:49 1008.700 - - - - NNW     342.62
2019-Jul-07 08:09:35 1009.500 - - - - NNW     342.62
2019-Jul-07 09:09:14 1009.500 - - - - NNW     342.62
2019-Jul-07 10:08:52 1008.900 - - - - NNW     342.62
2019-Jul-07 11:09:07 1008.900 - - - - NNW     342.62
2019-Jul-07 12:09:12 1008.600 - - - - NNW     342.62
2019-Jul-07 13:38:48 1008.100 - - - - NNW     342.62
2019-Jul-07 14:08:51 1007.600 - - - - NNW     342.62
2019-Jul-07 15:08:57 1007.300 - - - - NNW     342.62
2019-Jul-07 16:09:05 1006.900 - - - - NNW     342.62
2019-Jul-07 17:09:00 1006.300 - - - - NNW     342.62
2019-Jul-07 18:09:03 1005.600 - - - - NNW     342.62
2019-Jul-07 19:09:43 1005.500 - - - - NNW     342.62
2019-Jul-07 20:09:24 1005.900 - - - - NNW     342.62
2019-Jul-07 21:09:03 1005.900 - - - - NNW     342.62
2019-Jul-07 22:09:23 1006.500 - - - - NNW     342.62
2019-Jul-07 23:09:10 1007.700 - - - - NNW     342.62

Temperatura Máxima:    Temperatura Mínima:
Presión Máxima:1009.600 Hpa    Presión Mínima:1005.500 Hpa


Volver